When you browse on this site, cookies collect data to enhance your experience and personalize the content and advertising you see.
Visit our Privacy Policy to learn more. By continuing to use the site, you agree to this use of cookies and data.
  • în România
  • Lista ţărilor
  • Pe 7 zile
  • Temperatura apei
  • Meteo pe hartă
  • Widget-uri
  • user-avatar
    Intrare

    Meteo pe oră la Naftalan

    Astăzi, 3 Iunie, Miercuri

    Timp Temperatura Precipitaţii Vânt Presiune Umiditate
    00:00 +21°C° 0 mm 3 m/s 754 mmHg 80%
    01:00 +21°C° 0 mm 2 m/s 753 mmHg 81%
    02:00 +21°C° 0 mm 2 m/s 753 mmHg 82%
    03:00 +20°C° 0 mm 2 m/s 753 mmHg 82%
    04:00 +21°C° 0 mm 3 m/s 753 mmHg 78%
    05:00 +22°C° 0 mm 4 m/s 754 mmHg 73%
    06:00 +23°C° 0 mm 5 m/s 754 mmHg 68%
    07:00 +26°C° 0 mm 5 m/s 754 mmHg 61%
    08:00 +28°C° 0 mm 5 m/s 754 mmHg 53%
    09:00 +32°C° 0 mm 5 m/s 754 mmHg 46%
    10:00 +34°C° 0 mm 5 m/s 754 mmHg 40%
    11:00 +36°C° 0 mm 5 m/s 754 mmHg 35%
    12:00 +39°C° 0 mm 5 m/s 753 mmHg 30%
    13:00 +38°C° 0 mm 4 m/s 753 mmHg 30%
    14:00 +38°C° 0 mm 4 m/s 753 mmHg 30%
    15:00 +38°C° 0 mm 4 m/s 752 mmHg 30%
    16:00 +36°C° 0 mm 4 m/s 753 mmHg 37%
    17:00 +34°C° 0 mm 5 m/s 753 mmHg 44%
    18:00 +32°C° 0 mm 6 m/s 753 mmHg 50%
    19:00 +29°C° 0 mm 6 m/s 754 mmHg 52%
    20:00 +28°C° 0 mm 5 m/s 755 mmHg 54%
    21:00 +26°C° 0 mm 5 m/s 756 mmHg 56%
    22:00 +26°C° 0 mm 4 m/s 756 mmHg 58%
    23:00 +25°C° 0 mm 3 m/s 756 mmHg 59%

    Mâine, 4 Iunie, Joi

    Timp Temperatura Precipitaţii Vânt Presiune Umiditate
    00:00 +25°C° 0 mm 2 m/s 757 mmHg 61%
    01:00 +24°C° 0 mm 2 m/s 757 mmHg 62%
    02:00 +24°C° 0 mm 2 m/s 757 mmHg 64%
    03:00 +24°C° 0 mm 1 m/s 757 mmHg 65%
    04:00 +24°C° 0 mm 1 m/s 758 mmHg 62%
    05:00 +25°C° 0 mm 1 m/s 758 mmHg 60%
    06:00 +26°C° 0 mm 1 m/s 759 mmHg 57%
    07:00 +27°C° 0 mm 2 m/s 759 mmHg 55%
    08:00 +28°C° 0 mm 3 m/s 759 mmHg 54%
    09:00 +29°C° 0 mm 4 m/s 760 mmHg 52%
    10:00 +29°C° 0 mm 5 m/s 760 mmHg 52%
    11:00 +29°C° 0 mm 6 m/s 760 mmHg 52%
    12:00 +29°C° 0 mm 7 m/s 760 mmHg 52%
    13:00 +29°C° 0 mm 6 m/s 759 mmHg 55%
    14:00 +28°C° 0 mm 6 m/s 759 mmHg 57%
    15:00 +27°C° 0 mm 6 m/s 759 mmHg 59%
    16:00 +26°C° 0 mm 5 m/s 759 mmHg 62%
    17:00 +25°C° 0 mm 5 m/s 759 mmHg 66%
    18:00 +23°C° 0 mm 4 m/s 759 mmHg 69%
    19:00 +23°C° 0 mm 4 m/s 760 mmHg 72%
    20:00 +22°C° 0 mm 3 m/s 760 mmHg 75%
    21:00 +21°C° 0 mm 3 m/s 760 mmHg 78%
    22:00 +21°C° 0 mm 2 m/s 760 mmHg 79%
    23:00 +21°C° 0 mm 2 m/s 760 mmHg 79%

    Poimâine, 5 Iunie, Vineri

    Timp Temperatura Precipitaţii Vânt Presiune Umiditate
    00:00 +21°C° 0 mm 1 m/s 760 mmHg 80%
    01:00 +21°C° 0 mm 1 m/s 760 mmHg 80%
    02:00 +21°C° 0 mm 1 m/s 760 mmHg 81%
    03:00 +19°C° 0 mm 0 m/s 760 mmHg 81%
    04:00 +21°C° 0 mm 1 m/s 760 mmHg 78%
    05:00 +22°C° 0 mm 1 m/s 761 mmHg 74%
    06:00 +23°C° 0 mm 2 m/s 761 mmHg 71%
    07:00 +24°C° 0 mm 2 m/s 761 mmHg 64%
    08:00 +26°C° 0 mm 2 m/s 762 mmHg 57%
    09:00 +28°C° 0 mm 3 m/s 762 mmHg 50%
    10:00 +29°C° 0 mm 2 m/s 762 mmHg 47%
    11:00 +30°C° 0 mm 2 m/s 762 mmHg 45%
    12:00 +31°C° 0 mm 2 m/s 762 mmHg 43%
    13:00 +30°C° 0 mm 3 m/s 762 mmHg 44%
    14:00 +30°C° 0 mm 4 m/s 761 mmHg 45%
    15:00 +29°C° 0 mm 5 m/s 761 mmHg 46%
    16:00 +28°C° 0 mm 5 m/s 761 mmHg 49%
    17:00 +27°C° 0 mm 4 m/s 761 mmHg 51%
    18:00 +26°C° 0 mm 4 m/s 762 mmHg 53%
    19:00 +25°C° 0 mm 4 m/s 763 mmHg 57%
    20:00 +25°C° 0 mm 4 m/s 763 mmHg 60%
    21:00 +24°C° 0 mm 3 m/s 764 mmHg 63%
    22:00 +23°C° 0 mm 4 m/s 765 mmHg 65%
    23:00 +22°C° 0 mm 4 m/s 765 mmHg 67%

    6 Iunie, Sâmbătă

    Timp Temperatura Precipitaţii Vânt Presiune Umiditate
    00:00 +22°C° 0 mm 4 m/s 765 mmHg 69%
    01:00 +22°C° 0 mm 4 m/s 765 mmHg 69%
    02:00 +22°C° 0 mm 4 m/s 766 mmHg 69%
    03:00 +22°C° 0 mm 3 m/s 766 mmHg 70%
    04:00 +22°C° 0 mm 3 m/s 766 mmHg 68%
    05:00 +22°C° 0 mm 3 m/s 766 mmHg 66%
    06:00 +24°C° 0 mm 3 m/s 767 mmHg 65%
    07:00 +24°C° 0 mm 3 m/s 767 mmHg 62%
    08:00 +25°C° 0 mm 3 m/s 767 mmHg 58%
    09:00 +25°C° 0 mm 3 m/s 767 mmHg 55%
    10:00 +26°C° 0 mm 3 m/s 767 mmHg 54%
    11:00 +26°C° 0 mm 3 m/s 767 mmHg 52%
    12:00 +26°C° 0 mm 4 m/s 767 mmHg 50%
    13:00 +27°C° 0 mm 4 m/s 766 mmHg 49%
    14:00 +27°C° 0 mm 4 m/s 766 mmHg 48%
    15:00 +27°C° 0 mm 4 m/s 766 mmHg 46%
    16:00 +27°C° 0 mm 4 m/s 766 mmHg 48%
    17:00 +26°C° 0 mm 3 m/s 766 mmHg 51%
    18:00 +25°C° 0 mm 3 m/s 766 mmHg 53%
    19:00 +25°C° 0 mm 3 m/s 766 mmHg 57%
    20:00 +24°C° 0 mm 2 m/s 766 mmHg 61%
    21:00 +23°C° 0 mm 2 m/s 766 mmHg 64%
    22:00 +23°C° 0 mm 2 m/s 766 mmHg 65%
    23:00 +21°C° 0 mm 2 m/s 766 mmHg 65%

    7 Iunie, Duminică

    Timp Temperatura Precipitaţii Vânt Presiune Umiditate
    00:00 +21°C° 0 mm 2 m/s 766 mmHg 66%
    01:00 +21°C° 0 mm 2 m/s 766 mmHg 66%
    02:00 +20°C° 0 mm 2 m/s 766 mmHg 67%
    03:00 +21°C° 0 mm 1 m/s 766 mmHg 68%
    04:00 +22°C° 0 mm 1 m/s 766 mmHg 64%
    05:00 +23°C° 0 mm 1 m/s 766 mmHg 61%
    06:00 +24°C° 0 mm 1 m/s 766 mmHg 58%
    07:00 +25°C° 0 mm 1 m/s 766 mmHg 52%
    08:00 +26°C° 0 mm 2 m/s 766 mmHg 46%
    09:00 +27°C° 0 mm 2 m/s 766 mmHg 40%
    10:00 +28°C° 0 mm 2 m/s 766 mmHg 38%
    11:00 +28°C° 0 mm 3 m/s 765 mmHg 37%
    12:00 +29°C° 0 mm 3 m/s 765 mmHg 35%
    13:00 +29°C° 0 mm 4 m/s 765 mmHg 35%
    14:00 +29°C° 0 mm 4 m/s 764 mmHg 35%
    15:00 +29°C° 0 mm 5 m/s 764 mmHg 35%
    16:00 +28°C° 0 mm 4 m/s 764 mmHg 38%
    17:00 +27°C° 0 mm 4 m/s 764 mmHg 42%
    18:00 +26°C° 0 mm 4 m/s 764 mmHg 45%
    19:00 +25°C° 0 mm 4 m/s 764 mmHg 51%
    20:00 +23°C° 0 mm 4 m/s 764 mmHg 58%
    21:00 +22°C° 0 mm 3 m/s 764 mmHg 64%
    22:00 +22°C° 0 mm 3 m/s 764 mmHg 66%
    23:00 +21°C° 0 mm 3 m/s 764 mmHg 67%

    8 Iunie, Luni

    Timp Temperatura Precipitaţii Vânt Presiune Umiditate
    00:00 +21°C° 0 mm 3 m/s 764 mmHg 69%
    01:00 +21°C° 0 mm 3 m/s 763 mmHg 70%
    02:00 +21°C° 0 mm 3 m/s 763 mmHg 70%
    03:00 +20°C° 0 mm 3 m/s 763 mmHg 71%
    04:00 +21°C° 0 mm 3 m/s 763 mmHg 68%
    05:00 +22°C° 0 mm 3 m/s 763 mmHg 65%
    06:00 +24°C° 0 mm 3 m/s 763 mmHg 61%
    07:00 +25°C° 0 mm 3 m/s 763 mmHg 55%
    08:00 +26°C° 0 mm 4 m/s 763 mmHg 48%
    09:00 +27°C° 0 mm 4 m/s 763 mmHg 42%
    10:00 +28°C° 0 mm 4 m/s 763 mmHg 40%
    11:00 +29°C° 0 mm 5 m/s 762 mmHg 39%
    12:00 +29°C° 0 mm 5 m/s 762 mmHg 38%
    13:00 +29°C° 0 mm 6 m/s 762 mmHg 39%
    14:00 +28°C° 0 mm 6 m/s 761 mmHg 41%
    15:00 +28°C° 0 mm 6 m/s 761 mmHg 42%
    16:00 +27°C° 0 mm 6 m/s 761 mmHg 46%
    17:00 +26°C° 0 mm 6 m/s 761 mmHg 50%
    18:00 +24°C° 0 mm 6 m/s 761 mmHg 54%
    19:00 +24°C° 0 mm 6 m/s 761 mmHg 59%
    20:00 +23°C° 0 mm 5 m/s 762 mmHg 63%
    21:00 +22°C° 0 mm 5 m/s 762 mmHg 68%
    22:00 +22°C° 0 mm 5 m/s 762 mmHg 70%
    23:00 +22°C° 0 mm 4 m/s 762 mmHg 72%
    Arată mai mult